| time (UTC) | temp C | wind direction | speed KPH | gust KPH | rain 1hr cm | rain 24hr cm | rain mn cm | humidity % | barometer mb |
| 20260504090110 | 7 | 360 | 0.0 | 3.2 | 0.00 | 0.00 | 0.00 | 55 | 1003.5 |
| 20260504081538 | 7 | 360 | 3.2 | 6.4 | 0.00 | 0.00 | 0.00 | 54 | 1003.7 |
| 20260504050021 | 10 | 360 | 1.6 | 4.8 | 0.00 | 0.00 | 0.00 | 51 | 1005.5 |
| 20260504044601 | 10 | 360 | 0.0 | 4.8 | 0.00 | 0.00 | 0.00 | 52 | 1005.8 |
| 20260504043033 | 10 | 360 | 3.2 | 6.4 | 0.00 | 0.00 | 0.00 | 51 | 1005.9 |
| 20260504041501 | 10 | 360 | 0.0 | 3.2 | 0.00 | 0.00 | 0.00 | 49 | 1006.1 |
| 20260504040048 | 11 | 360 | 0.0 | 0.0 | 0.00 | 0.00 | 0.00 | 48 | 1006.3 |
| 20260504034505 | 11 | 360 | 1.6 | 4.8 | 0.00 | 0.00 | 0.00 | 46 | 1006.4 |
| 20260504033047 | 12 | 360 | 1.6 | 4.8 | 0.00 | 0.00 | 0.00 | 45 | 1006.5 |
| 20260504031523 | 12 | 360 | 0.0 | 9.7 | 0.00 | 0.00 | 0.00 | 45 | 1006.6 |
| 20260504024531 | 13 | 360 | 0.0 | 3.2 | 0.00 | 0.00 | 0.00 | 39 | 1006.9 |
| 20260504023108 | 14 | 360 | 0.0 | 6.4 | 0.00 | 0.00 | 0.00 | 38 | 1006.9 |
| 20260504021542 | 15 | 360 | 0.0 | 6.4 | 0.00 | 0.00 | 0.00 | 38 | 1006.8 |
| 20260504020007 | 16 | 360 | 0.0 | 1.6 | 0.00 | 0.00 | 0.00 | 35 | 1006.6 |
| 20260504014553 | 17 | 360 | 3.2 | 8.0 | 0.00 | 0.00 | 0.00 | 36 | 1006.8 |
| 20260504013029 | 18 | 360 | 0.0 | 1.6 | 0.00 | 0.00 | 0.00 | 33 | 1006.8 |
| 20260504011608 | 19 | 360 | 0.0 | 0.0 | 0.00 | 0.00 | 0.00 | 33 | 1007.1 |
| 20260504010045 | 20 | 360 | 0.0 | 1.6 | 0.00 | 0.00 | 0.00 | 28 | 1007.3 |
| 20260504004618 | 20 | 360 | 0.0 | 3.2 | 0.00 | 0.00 | 0.00 | 26 | 1007.7 |
| 20260504003054 | 20 | 360 | 1.6 | 4.8 | 0.00 | 0.00 | 0.00 | 25 | 1007.8 |
| 20260504001525 | 21 | 360 | 3.2 | 12.9 | 0.00 | 0.00 | 0.00 | 24 | 1008.0 |
| 20260504000139 | 21 | 360 | 3.2 | 12.9 | 0.00 | 0.00 | 0.00 | 22 | 1008.1 |
| 20260503234526 | 22 | 360 | 8.0 | 14.5 | 0.00 | 0.00 | 0.00 | 20 | 1008.4 |
| 20260503233108 | 21 | 360 | 1.6 | 12.9 | 0.00 | 0.00 | 0.00 | 22 | 1008.6 |
| 20260503231536 | 21 | 360 | 3.2 | 12.9 | 0.00 | 0.00 | 0.00 | 21 | 1008.7 |
| 20260503230002 | 21 | 360 | 6.4 | 12.9 | 0.00 | 0.00 | 0.00 | 21 | 1008.6 |
| 20260503224535 | 21 | 360 | 3.2 | 9.7 | 0.00 | 0.00 | 0.00 | 22 | 1008.7 |
| 20260503223111 | 21 | 360 | 8.0 | 16.1 | 0.00 | 0.00 | 0.00 | 21 | 1008.8 |
| 20260503221549 | 21 | 360 | 3.2 | 17.7 | 0.00 | 0.00 | 0.00 | 22 | 1008.9 |
| 20260503220007 | 21 | 360 | 6.4 | 19.3 | 0.00 | 0.00 | 0.00 | 22 | 1009.1 |
| 20260503214545 | 21 | 360 | 3.2 | 8.0 | 0.00 | 0.00 | 0.00 | 24 | 1009.3 |
| 20260503213014 | 21 | 360 | 3.2 | 14.5 | 0.00 | 0.00 | 0.00 | 23 | 1009.5 |
| 20260503211608 | 21 | 360 | 3.2 | 9.7 | 0.00 | 0.00 | 0.00 | 24 | 1009.7 |
| 20260503210027 | 21 | 360 | 4.8 | 16.1 | 0.00 | 0.00 | 0.00 | 20 | 1010.2 |
| 20260503204553 | 21 | 360 | 1.6 | 16.1 | 0.00 | 0.00 | 0.00 | 21 | 1010.4 |
| 20260503203035 | 21 | 360 | 3.2 | 16.1 | 0.00 | 0.00 | 0.00 | 22 | 1010.5 |
| 20260503201604 | 21 | 360 | 1.6 | 14.5 | 0.00 | 0.00 | 0.00 | 22 | 1010.7 |
| 20260503200029 | 21 | 360 | 3.2 | 17.7 | 0.00 | 0.00 | 0.00 | 22 | 1010.9 |
| 20260503194610 | 21 | 360 | 3.2 | 14.5 | 0.00 | 0.00 | 0.00 | 25 | 1011.0 |
| 20260503193038 | 21 | 360 | 1.6 | 6.4 | 0.00 | 0.00 | 0.00 | 23 | 1011.1 |
| 20260503191508 | 21 | 360 | 1.6 | 8.0 | 0.00 | 0.00 | 0.00 | 26 | 1011.3 |